AAL1080 KBOS-KDCA

Flight info

Callsign AAL1080
Flight time 1h 9m
Altitude 36000
Route SSOXS7 SSOXS Q167 ZIZZI KNUKK ATR LAFLN DEALE3
Aircraft B738/M-SDE2E3FGHIRWXY/LB1

Departure

Time 2026-05-05 22:27
Airport Boston Logan International Airport (KBOS)

Arrival

Time 2026-05-05 23:36
Airport Ronald Reagan Washington National Airport (KDCA)
Time Latitude Longitude Altitude Speed Heading
2026-05-05 22:00 42.35989 -71.01701 29 ft 0 kts 316°
2026-05-05 22:10 42.35986 -71.01696 24 ft 4 kts 316°
2026-05-05 22:11 42.35965 -71.01672 24 ft 4 kts 323°
2026-05-05 22:11 42.35943 -71.01652 24 ft 4 kts 334°
2026-05-05 22:11 42.35918 -71.01641 28 ft 4 kts 358°
2026-05-05 22:11 42.35901 -71.01643 26 ft 1 kts 20°
2026-05-05 22:12 42.35898 -71.01645 24 ft 0 kts 20°
2026-05-05 22:15 42.35905 -71.01641 24 ft 4 kts 21°
2026-05-05 22:15 42.35952 -71.01617 24 ft 9 kts 18°
2026-05-05 22:15 42.36024 -71.01584 26 ft 12 kts 20°
2026-05-05 22:15 42.36104 -71.01545 25 ft 12 kts 20°
2026-05-05 22:16 42.36180 -71.01507 26 ft 12 kts 20°
2026-05-05 22:16 42.36259 -71.01468 26 ft 13 kts 20°
2026-05-05 22:16 42.36343 -71.01429 26 ft 13 kts 19°
2026-05-05 22:16 42.36425 -71.01388 27 ft 12 kts 22°
2026-05-05 22:17 42.36505 -71.01344 26 ft 12 kts 27°
2026-05-05 22:17 42.36580 -71.01295 25 ft 12 kts 20°
2026-05-05 22:17 42.36657 -71.01261 28 ft 12 kts 16°
2026-05-05 22:17 42.36722 -71.01243 27 ft 8 kts
2026-05-05 22:18 42.36773 -71.01259 28 ft 8 kts 326°
2026-05-05 22:18 42.36812 -71.01301 28 ft 7 kts 358°
2026-05-05 22:18 42.36859 -71.01258 28 ft 10 kts 39°
2026-05-05 22:18 42.36916 -71.01197 26 ft 11 kts 37°
2026-05-05 22:19 42.36976 -71.01128 27 ft 12 kts 34°
2026-05-05 22:19 42.37057 -71.01065 28 ft 16 kts 26°
2026-05-05 22:19 42.37159 -71.00998 27 ft 16 kts 26°
2026-05-05 22:19 42.37232 -71.00951 28 ft 8 kts 26°
2026-05-05 22:20 42.37241 -71.00945 25 ft 2 kts 26°
2026-05-05 22:20 42.37299 -71.00910 28 ft 17 kts 22°
2026-05-05 22:20 42.37436 -71.00843 27 ft 20 kts 19°
2026-05-05 22:20 42.37527 -71.00799 28 ft 13 kts 21°
2026-05-05 22:21 42.37611 -71.00757 24 ft 13 kts 20°
2026-05-05 22:21 42.37693 -71.00715 26 ft 12 kts 22°
2026-05-05 22:21 42.37773 -71.00677 29 ft 12 kts 19°
2026-05-05 22:21 42.37833 -71.00628 25 ft 9 kts 59°
2026-05-05 22:22 42.37835 -71.00587 28 ft 2 kts 105°
2026-05-05 22:22 42.37834 -71.00582 27 ft 0 kts 106°
2026-05-05 22:23 42.37836 -71.00594 25 ft 0 kts 106°
2026-05-05 22:25 42.37833 -71.00579 24 ft 1 kts 108°
2026-05-05 22:25 42.37820 -71.00521 26 ft 10 kts 110°
2026-05-05 22:26 42.37769 -71.00487 26 ft 2 kts 193°
2026-05-05 22:26 42.37724 -71.00507 25 ft 29 kts 199°
2026-05-05 22:26 42.37310 -71.00704 26 ft 96 kts 200°
2026-05-05 22:27 42.36496 -71.01106 49 ft 149 kts 203°
2026-05-05 22:27 42.35465 -71.01596 561 ft 164 kts 200°
2026-05-05 22:27 42.34321 -71.01960 1227 ft 176 kts 183°
2026-05-05 22:27 42.33155 -71.01304 1867 ft 197 kts 142°
2026-05-05 22:28 42.32463 -70.99612 2425 ft 213 kts 118°
2026-05-05 22:28 42.31881 -70.97838 3139 ft 208 kts 131°
2026-05-05 22:28 42.31310 -70.95896 3391 ft 243 kts 105°
2026-05-05 22:28 42.31372 -70.93482 3580 ft 266 kts 95°
2026-05-05 22:29 42.30940 -70.91142 3915 ft 251 kts 135°
2026-05-05 22:29 42.29641 -70.89740 4202 ft 240 kts 171°
2026-05-05 22:29 42.28035 -70.89770 4720 ft 231 kts 202°
2026-05-05 22:29 42.26510 -70.90456 5454 ft 233 kts 206°
2026-05-05 22:30 42.25158 -70.91634 6162 ft 232 kts 220°
2026-05-05 22:30 42.23898 -70.93021 6834 ft 237 kts 220°
2026-05-05 22:30 42.22620 -70.94441 7529 ft 240 kts 221°
2026-05-05 22:30 42.21319 -70.95888 8252 ft 242 kts 221°
2026-05-05 22:31 42.20002 -70.97346 8882 ft 247 kts 221°
2026-05-05 22:31 42.18652 -70.98836 9543 ft 252 kts 221°
2026-05-05 22:31 42.17292 -71.00337 10201 ft 256 kts 221°
2026-05-05 22:31 42.15860 -71.01919 10435 ft 276 kts 221°
2026-05-05 22:32 42.14323 -71.03615 10606 ft 296 kts 222°
2026-05-05 22:32 42.12686 -71.05418 10988 ft 307 kts 221°
2026-05-05 22:32 42.11011 -71.07254 11552 ft 313 kts 222°
2026-05-05 22:32 42.09312 -71.09114 12207 ft 316 kts 222°
2026-05-05 22:33 42.07598 -71.10988 12867 ft 320 kts 222°
2026-05-05 22:33 42.05856 -71.12891 13512 ft 324 kts 222°
2026-05-05 22:33 42.04124 -71.14779 14203 ft 326 kts 222°
2026-05-05 22:33 42.02353 -71.16709 14848 ft 330 kts 221°
2026-05-05 22:34 42.00554 -71.18666 15491 ft 334 kts 221°
2026-05-05 22:34 41.98740 -71.20639 16130 ft 338 kts 221°
2026-05-05 22:34 41.96902 -71.22639 16681 ft 343 kts 220°
2026-05-05 22:34 41.95034 -71.24671 17269 ft 347 kts 220°
2026-05-05 22:35 41.93156 -71.26712 17899 ft 349 kts 220°
2026-05-05 22:35 41.91259 -71.28770 18505 ft 351 kts 220°
2026-05-05 22:35 41.89349 -71.30842 19061 ft 355 kts 220°
2026-05-05 22:35 41.87415 -71.32939 19599 ft 359 kts 220°
2026-05-05 22:36 41.85466 -71.35050 20123 ft 362 kts 220°
2026-05-05 22:36 41.83495 -71.37182 20660 ft 365 kts 220°
2026-05-05 22:36 41.81507 -71.39332 21159 ft 369 kts 220°
2026-05-05 22:36 41.79502 -71.41497 21673 ft 372 kts 220°
2026-05-05 22:37 41.77477 -71.43683 22158 ft 375 kts 220°
2026-05-05 22:37 41.75441 -71.45880 22616 ft 378 kts 221°
2026-05-05 22:37 41.74051 -71.47379 22918 ft 381 kts 220°
2026-05-05 22:37 41.72005 -71.49583 23357 ft 384 kts 220°
2026-05-05 22:38 41.69892 -71.51856 23794 ft 387 kts 220°
2026-05-05 22:38 41.67815 -71.54088 24213 ft 389 kts 221°
2026-05-05 22:38 41.65668 -71.56395 24620 ft 392 kts 221°
2026-05-05 22:38 41.63532 -71.58687 25002 ft 396 kts 221°
2026-05-05 22:39 41.61404 -71.60971 25343 ft 399 kts 221°
2026-05-05 22:39 41.59231 -71.63299 25731 ft 402 kts 221°
2026-05-05 22:39 41.57041 -71.65643 26096 ft 405 kts 221°
2026-05-05 22:39 41.54813 -71.68026 26523 ft 405 kts 221°
2026-05-05 22:40 41.52643 -71.70343 27035 ft 403 kts 221°
2026-05-05 22:40 41.50430 -71.72704 27535 ft 402 kts 221°
2026-05-05 22:40 41.48274 -71.75004 27938 ft 403 kts 221°
2026-05-05 22:40 41.46091 -71.77329 28340 ft 403 kts 221°
2026-05-05 22:41 41.43901 -71.79661 28767 ft 403 kts 222°
2026-05-05 22:41 41.41713 -71.81989 29145 ft 404 kts 222°
2026-05-05 22:41 41.39491 -71.84354 29229 ft 412 kts 222°
2026-05-05 22:41 41.37232 -71.86756 29342 ft 420 kts 222°
2026-05-05 22:42 41.34936 -71.89194 29491 ft 425 kts 222°
2026-05-05 22:42 41.32614 -71.91655 29755 ft 427 kts 222°
2026-05-05 22:42 41.30292 -71.94111 30118 ft 426 kts 222°
2026-05-05 22:42 41.28006 -71.96526 30533 ft 424 kts 222°
2026-05-05 22:43 41.25677 -71.98986 30931 ft 422 kts 221°
2026-05-05 22:43 41.23378 -72.01412 31270 ft 422 kts 221°
2026-05-05 22:43 41.21076 -72.03841 31606 ft 421 kts 221°
2026-05-05 22:43 41.18785 -72.06255 31921 ft 421 kts 221°
2026-05-05 22:44 41.16493 -72.08669 32269 ft 420 kts 221°
2026-05-05 22:44 41.14211 -72.11070 32592 ft 419 kts 221°
2026-05-05 22:44 41.11929 -72.13468 32910 ft 418 kts 221°
2026-05-05 22:44 41.09648 -72.15864 33205 ft 417 kts 221°
2026-05-05 22:45 41.07379 -72.18248 33447 ft 417 kts 221°
2026-05-05 22:45 41.05099 -72.20639 33688 ft 418 kts 221°
2026-05-05 22:45 41.02822 -72.23023 33968 ft 417 kts 221°
2026-05-05 22:45 41.00545 -72.25405 34239 ft 417 kts 221°
2026-05-05 22:46 40.98267 -72.27786 34514 ft 416 kts 221°
2026-05-05 22:46 40.96009 -72.30144 34803 ft 415 kts 221°
2026-05-05 22:46 40.93742 -72.32509 35101 ft 413 kts 221°
2026-05-05 22:46 40.91482 -72.34865 35266 ft 415 kts 221°
2026-05-05 22:47 40.89204 -72.37240 35281 ft 420 kts 221°
2026-05-05 22:47 40.84561 -72.42073 35367 ft 429 kts 221°
2026-05-05 22:48 40.79875 -72.46938 35485 ft 435 kts 221°
2026-05-05 22:48 40.77450 -72.49453 35671 ft 435 kts 221°
2026-05-05 22:48 40.75076 -72.51911 35934 ft 433 kts 221°
2026-05-05 22:49 40.70308 -72.56846 35933 ft 436 kts 221°
2026-05-05 22:49 40.65615 -72.61956 35947 ft 440 kts 224°
2026-05-05 22:50 40.60989 -72.67336 35936 ft 446 kts 224°
2026-05-05 22:50 40.56324 -72.72756 35929 ft 449 kts 224°
2026-05-05 22:51 40.51649 -72.78134 35926 ft 451 kts 224°
2026-05-05 22:51 40.46918 -72.83546 35924 ft 451 kts 224°
2026-05-05 22:52 40.42182 -72.88950 35927 ft 451 kts 224°
2026-05-05 22:52 40.37456 -72.94334 35908 ft 450 kts 224°
2026-05-05 22:53 40.32798 -72.99631 35612 ft 438 kts 224°
2026-05-05 22:53 40.30474 -73.02272 35002 ft 437 kts 224°
2026-05-05 22:53 40.28162 -73.04899 34322 ft 438 kts 224°
2026-05-05 22:53 40.25871 -73.07496 34186 ft 437 kts 224°
2026-05-05 22:54 40.23549 -73.10128 34078 ft 444 kts 224°
2026-05-05 22:54 40.21195 -73.12791 33971 ft 451 kts 224°
2026-05-05 22:54 40.18809 -73.15486 33920 ft 456 kts 224°
2026-05-05 22:55 40.13977 -73.20933 33903 ft 459 kts 224°
2026-05-05 22:55 40.09141 -73.26376 33891 ft 458 kts 224°
2026-05-05 22:56 40.04369 -73.31730 33897 ft 457 kts 224°
2026-05-05 22:56 39.99502 -73.37178 33895 ft 456 kts 224°
2026-05-05 22:57 39.94677 -73.42573 33898 ft 457 kts 224°
2026-05-05 22:57 39.89840 -73.47972 33907 ft 458 kts 224°
2026-05-05 22:58 39.84992 -73.53373 33909 ft 459 kts 224°
2026-05-05 22:58 39.80158 -73.58745 33906 ft 460 kts 224°
2026-05-05 22:59 39.76017 -73.64930 33909 ft 451 kts 243°
2026-05-05 22:59 39.73138 -73.72134 33909 ft 450 kts 246°
2026-05-05 23:00 39.68857 -73.82979 33913 ft 450 kts 246°
2026-05-05 23:00 39.65962 -73.90186 33923 ft 450 kts 246°
2026-05-05 23:01 39.63055 -73.97377 33926 ft 450 kts 246°
2026-05-05 23:01 39.60143 -74.04559 33927 ft 450 kts 246°
2026-05-05 23:02 39.57224 -74.11744 33925 ft 450 kts 246°
2026-05-05 23:02 39.54305 -74.18915 33927 ft 450 kts 246°
2026-05-05 23:03 39.51750 -74.25177 33926 ft 450 kts 246°
2026-05-05 23:03 39.48823 -74.32329 33924 ft 445 kts 246°
2026-05-05 23:04 39.45938 -74.39365 33935 ft 441 kts 246°
2026-05-05 23:04 39.43061 -74.46373 33944 ft 441 kts 246°
2026-05-05 23:05 39.40182 -74.53371 33952 ft 441 kts 246°
2026-05-05 23:05 39.37291 -74.60377 33953 ft 442 kts 245°
2026-05-05 23:06 39.34436 -74.67270 33552 ft 423 kts 246°
2026-05-05 23:06 39.33050 -74.70611 32576 ft 423 kts 245°
2026-05-05 23:06 39.31652 -74.73988 31219 ft 432 kts 245°
2026-05-05 23:07 39.30217 -74.77455 29715 ft 443 kts 245°
2026-05-05 23:07 39.28770 -74.80942 29159 ft 430 kts 244°
2026-05-05 23:07 39.27364 -74.84311 28585 ft 426 kts 244°
2026-05-05 23:07 39.25951 -74.87702 28166 ft 432 kts 244°
2026-05-05 23:08 39.24521 -74.91134 27678 ft 437 kts 244°
2026-05-05 23:08 39.23081 -74.94583 27181 ft 435 kts 244°
2026-05-05 23:08 39.21653 -74.97995 26696 ft 430 kts 244°
2026-05-05 23:08 39.20241 -75.01369 26211 ft 426 kts 244°
2026-05-05 23:09 39.18839 -75.04715 25735 ft 422 kts 243°
2026-05-05 23:09 39.17453 -75.08021 25267 ft 418 kts 243°
2026-05-05 23:09 39.16074 -75.11307 24804 ft 415 kts 243°
2026-05-05 23:09 39.14705 -75.14562 24339 ft 412 kts 243°
2026-05-05 23:10 39.13344 -75.17798 23877 ft 409 kts 243°
2026-05-05 23:10 39.11996 -75.21000 23418 ft 406 kts 243°
2026-05-05 23:10 39.10655 -75.24182 22968 ft 403 kts 243°
2026-05-05 23:10 39.09323 -75.27343 22508 ft 400 kts 243°
2026-05-05 23:11 39.08001 -75.30474 22056 ft 397 kts 243°
2026-05-05 23:11 39.06685 -75.33585 21616 ft 394 kts 243°
2026-05-05 23:11 39.05381 -75.36665 21152 ft 391 kts 243°
2026-05-05 23:11 39.04081 -75.39733 20716 ft 388 kts 243°
2026-05-05 23:12 39.02798 -75.42758 20278 ft 384 kts 243°
2026-05-05 23:12 39.01520 -75.45768 19847 ft 381 kts 243°
2026-05-05 23:12 39.00258 -75.48742 19418 ft 378 kts 243°
2026-05-05 23:12 38.98999 -75.51700 18994 ft 375 kts 243°
2026-05-05 23:13 38.97755 -75.54623 18569 ft 372 kts 243°
2026-05-05 23:13 38.96514 -75.57534 18154 ft 369 kts 243°
2026-05-05 23:13 38.95284 -75.60418 17749 ft 366 kts 243°
2026-05-05 23:13 38.94077 -75.63245 17338 ft 363 kts 243°
2026-05-05 23:14 38.92856 -75.66102 16921 ft 360 kts 243°
2026-05-05 23:14 38.91662 -75.68894 16598 ft 355 kts 243°
2026-05-05 23:14 38.90474 -75.71668 16230 ft 352 kts 243°
2026-05-05 23:14 38.89298 -75.74415 15847 ft 350 kts 243°
2026-05-05 23:15 38.88128 -75.77145 15442 ft 349 kts 242°
2026-05-05 23:15 38.86962 -75.79864 15055 ft 347 kts 242°
2026-05-05 23:15 38.85795 -75.82584 14668 ft 348 kts 242°
2026-05-05 23:15 38.84642 -75.85265 14279 ft 338 kts 242°
2026-05-05 23:16 38.83508 -75.87901 13886 ft 339 kts 242°
2026-05-05 23:16 38.82372 -75.90539 13483 ft 337 kts 242°
2026-05-05 23:16 38.81243 -75.93160 13108 ft 334 kts 242°
2026-05-05 23:16 38.80122 -75.95761 12710 ft 332 kts 242°
2026-05-05 23:17 38.79008 -75.98340 12316 ft 330 kts 242°
2026-05-05 23:17 38.77900 -76.00908 11913 ft 328 kts 242°
2026-05-05 23:17 38.76811 -76.03426 11495 ft 318 kts 241°
2026-05-05 23:17 38.75917 -76.05946 11078 ft 307 kts 255°
2026-05-05 23:18 38.75643 -76.08580 11009 ft 294 kts 266°
2026-05-05 23:18 38.75792 -76.11215 10950 ft 296 kts 273°
2026-05-05 23:18 38.76047 -76.13825 10890 ft 295 kts 274°
2026-05-05 23:18 38.76310 -76.16398 10830 ft 295 kts 274°
2026-05-05 23:19 38.76579 -76.19045 10765 ft 296 kts 274°
2026-05-05 23:19 38.76834 -76.21617 10716 ft 295 kts 273°
2026-05-05 23:19 38.77089 -76.24262 10651 ft 296 kts 273°
2026-05-05 23:19 38.77335 -76.26846 10603 ft 296 kts 273°
2026-05-05 23:20 38.77581 -76.29463 10545 ft 296 kts 273°
2026-05-05 23:20 38.77826 -76.32082 10493 ft 296 kts 273°
2026-05-05 23:20 38.78069 -76.34704 10434 ft 296 kts 273°
2026-05-05 23:20 38.78310 -76.37318 10374 ft 296 kts 273°
2026-05-05 23:21 38.78551 -76.39934 10297 ft 295 kts 273°
2026-05-05 23:21 38.78791 -76.42551 10260 ft 295 kts 273°
2026-05-05 23:21 38.79030 -76.45163 10195 ft 295 kts 272°
2026-05-05 23:21 38.79267 -76.47730 10070 ft 284 kts 272°
2026-05-05 23:22 38.79493 -76.50186 10021 ft 270 kts 272°
2026-05-05 23:22 38.79706 -76.52500 10002 ft 255 kts 272°
2026-05-05 23:22 38.79857 -76.54730 10015 ft 248 kts 269°
2026-05-05 23:22 38.79909 -76.56176 10008 ft 244 kts 268°
2026-05-05 23:23 38.79974 -76.58326 9995 ft 238 kts 268°
2026-05-05 23:23 38.80036 -76.60388 9991 ft 226 kts 268°
2026-05-05 23:23 38.80097 -76.62356 9989 ft 218 kts 268°
2026-05-05 23:23 38.80157 -76.64274 10011 ft 214 kts 268°
2026-05-05 23:24 38.80216 -76.66208 10025 ft 220 kts 268°
2026-05-05 23:24 38.80279 -76.68186 10024 ft 225 kts 268°
2026-05-05 23:24 38.80344 -76.70193 10017 ft 225 kts 268°
2026-05-05 23:24 38.80410 -76.72191 10005 ft 224 kts 268°
2026-05-05 23:25 38.80498 -76.74930 9432 ft 240 kts 268°
2026-05-05 23:25 38.80543 -76.76375 8947 ft 251 kts 269°
2026-05-05 23:25 38.80986 -76.78615 8400 ft 270 kts 292°
2026-05-05 23:25 38.82050 -76.80634 8094 ft 275 kts 302°
2026-05-05 23:26 38.83261 -76.82536 7803 ft 275 kts 303°
2026-05-05 23:26 38.84478 -76.84428 7494 ft 275 kts 303°
2026-05-05 23:26 38.85683 -76.86331 7235 ft 273 kts 302°
2026-05-05 23:26 38.86866 -76.88223 6942 ft 272 kts 302°
2026-05-05 23:27 38.88060 -76.90117 6631 ft 273 kts 304°
2026-05-05 23:27 38.89374 -76.91878 6347 ft 273 kts 308°
2026-05-05 23:27 38.90735 -76.93581 6101 ft 272 kts 309°
2026-05-05 23:27 38.92090 -76.95273 6044 ft 275 kts 309°
2026-05-05 23:28 38.93461 -76.96995 6003 ft 274 kts 309°
2026-05-05 23:28 38.94810 -76.98695 6004 ft 271 kts 308°
2026-05-05 23:28 38.96151 -77.00402 6012 ft 271 kts 308°
2026-05-05 23:28 38.97476 -77.02094 6008 ft 271 kts 308°
2026-05-05 23:29 38.98779 -77.03754 5922 ft 258 kts 308°
2026-05-05 23:29 39.00013 -77.05331 5828 ft 245 kts 307°
2026-05-05 23:29 39.01195 -77.06841 5667 ft 234 kts 307°
2026-05-05 23:29 39.02342 -77.08312 5371 ft 232 kts 307°
2026-05-05 23:30 39.03459 -77.09750 5021 ft 230 kts 307°
2026-05-05 23:30 39.04540 -77.11304 4618 ft 229 kts 302°
2026-05-05 23:30 39.05537 -77.12888 4286 ft 226 kts 297°
2026-05-05 23:30 39.06078 -77.14686 3864 ft 210 kts 265°
2026-05-05 23:31 39.05732 -77.16414 3437 ft 198 kts 231°
2026-05-05 23:31 39.04671 -77.17448 3103 ft 196 kts 197°
2026-05-05 23:31 39.03317 -77.17757 3096 ft 203 kts 187°
2026-05-05 23:31 39.01913 -77.17456 3032 ft 209 kts 164°
2026-05-05 23:32 39.00546 -77.16851 3011 ft 207 kts 168°
2026-05-05 23:32 38.99178 -77.16325 3006 ft 205 kts 169°
2026-05-05 23:32 38.97844 -77.15811 2989 ft 194 kts 166°
2026-05-05 23:32 38.96749 -77.14898 3004 ft 191 kts 140°
2026-05-05 23:33 38.95904 -77.13635 2980 ft 183 kts 140°
2026-05-05 23:33 38.94961 -77.12409 2449 ft 202 kts 147°
2026-05-05 23:33 38.94231 -77.11721 2178 ft 206 kts 152°
2026-05-05 23:33 38.93833 -77.11402 2107 ft 204 kts 154°
2026-05-05 23:34 38.92625 -77.10463 1818 ft 202 kts 153°
2026-05-05 23:34 38.91469 -77.09525 1680 ft 196 kts 145°
2026-05-05 23:34 38.90617 -77.08116 1226 ft 208 kts 123°
2026-05-05 23:34 38.89927 -77.06491 1036 ft 197 kts 129°
2026-05-05 23:35 38.89136 -77.05223 1043 ft 170 kts 140°
2026-05-05 23:35 38.88258 -77.04328 735 ft 159 kts 157°
2026-05-05 23:35 38.87249 -77.03974 393 ft 147 kts 176°
2026-05-05 23:35 38.86258 -77.03881 94 ft 138 kts 179°
2026-05-05 23:36 38.85352 -77.03793 25 ft 116 kts 175°
2026-05-05 23:36 38.84698 -77.03728 25 ft 73 kts 176°
2026-05-05 23:36 38.84447 -77.03712 25 ft 16 kts 191°
2026-05-05 23:36 38.84392 -77.03786 26 ft 7 kts 263°
2026-05-05 23:37 38.84397 -77.03819 25 ft 0 kts 299°
2026-05-05 23:38 38.84408 -77.03833 25 ft 5 kts 322°
2026-05-05 23:38 38.84446 -77.03847 25 ft 6 kts 354°
2026-05-05 23:38 38.84486 -77.03852 25 ft 7 kts 355°
2026-05-05 23:38 38.84544 -77.03858 23 ft 10 kts 355°
2026-05-05 23:39 38.84613 -77.03864 24 ft 10 kts 358°
2026-05-05 23:39 38.84678 -77.03870 28 ft 9 kts 355°
2026-05-05 23:39 38.84731 -77.03901 27 ft 9 kts 298°
2026-05-05 23:39 38.84780 -77.03941 27 ft 9 kts 353°
2026-05-05 23:40 38.84840 -77.03948 25 ft 9 kts 355°
2026-05-05 23:40 38.84898 -77.03952 26 ft 8 kts 356°
2026-05-05 23:40 38.84935 -77.03955 24 ft 3 kts 355°
2026-05-05 23:40 38.84948 -77.03956 23 ft 0 kts 356°
2026-05-05 23:42 38.84954 -77.03952 23 ft 3 kts 31°
2026-05-05 23:43 38.84964 -77.03925 25 ft 5 kts 62°
2026-05-05 23:43 38.85002 -77.03901 24 ft 8 kts 353°
2026-05-05 23:43 38.85057 -77.03908 23 ft 8 kts 358°
2026-05-05 23:43 38.85119 -77.03913 23 ft 9 kts 355°
2026-05-05 23:44 38.85164 -77.03967 23 ft 9 kts 321°
2026-05-05 23:44 38.85224 -77.03985 23 ft 9 kts 350°
2026-05-05 23:44 38.85286 -77.03991 23 ft 9 kts 358°
2026-05-05 23:44 38.85364 -77.03998 23 ft 13 kts 356°
2026-05-05 23:45 38.85454 -77.04006 23 ft 13 kts 358°
2026-05-05 23:45 38.85535 -77.04038 25 ft 12 kts 307°
2026-05-05 23:45 38.85529 -77.04130 23 ft 8 kts 247°
2026-05-05 23:45 38.85510 -77.04196 26 ft 7 kts 249°
2026-05-05 23:46 38.85500 -77.04227 26 ft 0 kts 249°
2026-05-05 23:46 38.85499 -77.04230 26 ft 1 kts 248°
2026-05-05 23:46 38.85488 -77.04248 25 ft 3 kts 207°
2026-05-05 23:46 38.85465 -77.04245 25 ft 3 kts 166°
2026-05-05 23:47 38.85450 -77.04240 24 ft 1 kts 163°
2026-05-05 23:47 38.85445 -77.04237 24 ft 1 kts 162°
2026-05-05 23:47 38.85442 -77.04236 23 ft 0 kts 162°